This is the latest recevied weather packets stored in our database for station/object KM5R. If no packets are shown the sender has not sent any weather packets the latest 10 day(s).
| Time | Temp. | Humidity | Pressure | Rain* | Wind** | Luminosity | Snow |
|---|---|---|---|---|---|---|---|
| 1777852009 | 24.44° C | 34% | 1018.2 hPa | 0 mm | - | 79 W/m² | - |
| 1777851707 | 24.44° C | 35% | 1018.4 hPa | 0 mm | - | 159 W/m² | - |
| 1777851404 | 24.44° C | 35% | 1018.3 hPa | 0 mm | - | 164 W/m² | - |
| 1777851099 | 24.44° C | 34% | 1018.2 hPa | 0 mm | - | 167 W/m² | - |
| 1777850796 | 23.89° C | 35% | 1018.6 hPa | 0 mm | - | 145 W/m² | - |
| 1777850494 | 24.44° C | 34% | 1018.5 hPa | 0 mm | - | 132 W/m² | - |
| 1777850192 | 24.44° C | 35% | 1018.3 hPa | 0 mm | - | 97 W/m² | - |
| 1777849888 | 25° C | 33% | 1018.6 hPa | 0 mm | - | 173 W/m² | - |
| 1777849585 | 25° C | 33% | 1018.6 hPa | 0 mm | - | 217 W/m² | - |
| 1777849282 | 25° C | 32% | 1018.7 hPa | 0 mm | - | 286 W/m² | - |
| 1777848980 | 25.56° C | 32% | 1018.6 hPa | 0 mm | - | 214 W/m² | - |
| 1777848679 | 25° C | 33% | 1018.5 hPa | 0 mm | - | 366 W/m² | - |
| 1777848377 | 25° C | 34% | 1018.5 hPa | 0 mm | - | 294 W/m² | - |
| 1777848075 | 25° C | 33% | 1018.5 hPa | 0 mm | - | 360 W/m² | - |
| 1777847772 | 25° C | 33% | 1018.6 hPa | 0 mm | - | 254 W/m² | - |
| 1777847468 | 25° C | 33% | 1018.8 hPa | 0 mm | - | 376 W/m² | - |
| 1777847166 | 25° C | 34% | 1018.8 hPa | 0 mm | - | 407 W/m² | - |
| 1777846863 | 25° C | 33% | 1019 hPa | 0 mm | - | 383 W/m² | - |
| 1777846561 | 25° C | 33% | 1018.7 hPa | 0 mm | - | 267 W/m² | - |
| 1777846259 | 25° C | 33% | 1018.9 hPa | 0 mm | - | 465 W/m² | - |
| 1777845955 | 25.56° C | 34% | 1019 hPa | 0 mm | - | 498 W/m² | - |
| 1777845652 | 25° C | 34% | 1018.9 hPa | 0 mm | - | 416 W/m² | - |
| 1777845349 | 25° C | 34% | 1019 hPa | 0 mm | - | 452 W/m² | - |
| 1777845046 | 25.56° C | 34% | 1019.2 hPa | 0 mm | - | 445 W/m² | - |
| 1777844744 | 25.56° C | 34% | 1019.4 hPa | 0 mm | - | 498 W/m² | - |
* Rain latest hour (hover to see other rain measurements)
** Current wind speed in m/s (hover to see current wind gust speed)